HST 1 20580U 90037B 24321.65912821 .00009845 00000-0 42102-3 0 9998 2 20580 28.4697 41.2857 0001752 252.6034 107.4367 15.21129706700501 ISS (ZARYA) 1 25544U 98067A 24322.09401066 .00019103 00000-0 34302-3 0 9998 2 25544 51.6410 277.8367 0007583 226.0535 235.5529 15.49882713482266 CXO 1 25867U 99040B 24323.87927738 .00000571 00000-0 00000-0 0 9998 2 25867 44.7074 141.5385 8725615 304.2436 359.8848 0.37806582 15144